Location: Shenandoah County Park
(38.9356°N, 78.4524°W)
Time: 18:03:04
(UTC-04:00)

Explorer 11/Cluster Stage 4 - Pass Details

Date: 24 February 2024
Orbit: 465 x 1219 km, 28.8° (Epoch: 21 April)

Event Time Altitude Azimuth Distance (km) Brightness Sun altitude
Rises 23:19:35 0° 206° (SSW) 4,086 - -56.7°
Reaches altitude 10° 23:23:53 10° 185° (S) 3,161 - -57.2°
Maximum altitude 23:28:08 15° 153° (SSE) 2,767 - -57.6°
Drops below altitude 10° 23:32:20 10° 121° (ESE) 3,114 - -57.9°
Sets 23:36:29 0° 100° (E) 3,993 - -58.3°
